Location: Pine Mountain Observatory
(43.7910°N, 120.9377°W)
Time: 21:51:28
(UTC-07:00)

Daily predictions for brighter satellites

Satellite Brightness Start Highest point End
(mag) Time Altitude Azimuth Time Altitude Azimuth Time Altitude Azimuth
Cosmos 1674 Rocket 3.6 20:59:08 10° N 21:03:35 67° E 21:07:59 10° SSE
SL-27 R/B 2.6 21:00:55 10° NNW 21:04:35 81° WSW 21:08:10 10° SSE
Cosmos 2074 Rocket 4.1 20:59:12 10° S 21:05:30 87° E 21:11:47 10° N
Meteor 2-3 Rocket 4.5 21:00:36 10° SSW 21:06:06 58° WNW 21:11:38 10° N
Cosmos 1606 3.2 21:04:33 10° N 21:08:19 43° ENE 21:12:04 10° SSE
Resurs 01 Rocket 4.4 21:07:09 10° SW 21:09:50 16° W 21:12:32 10° NW
NOSS 2-2 (D) 3.9 21:07:01 10° SW 21:11:10 72° NW 21:16:05 10° NE
Cosmos 1340 Rocket 4.5 21:09:30 10° SW 21:13:16 38° WNW 21:17:04 10° N
Cosmos 1610 Rocket 4.5 21:09:02 10° S 21:15:10 72° E 21:21:23 10° NNE
Cosmos 1892 3.6 21:11:56 10° SSW 21:15:41 53° WNW 21:19:30 10° N
Sich 1 Rocket 3.7 21:12:31 10° S 21:17:02 64° E 21:21:35 10° NNE
Cosmos 1356 Rocket 4.4 21:13:37 10° SSW 21:17:46 54° WNW 21:22:00 10° N
Meteor 1-27 Rocket 3.7 21:13:59 10° N 21:19:33 65° ENE 21:25:01 10° SSE
Cosmos 1782 Rocket 4.4 21:16:22 10° SSE 21:20:18 32° E 21:24:17 10° NNE
Cosmos 1782 3.0 21:16:17 10° N 21:20:20 79° W 21:24:22 10° S
Nadezhda 3 Rocket 4.2 21:14:14 10° N 21:20:32 61° ENE 21:26:50 10° SSE
CZ-4 DEB 3.8 21:18:29 10° S 21:21:32 44° W 21:24:37 10° NNW
BREEZE-M DEB (TANK) 2.9 21:20:14 10° WSW 21:22:41 70° NNW 21:28:15 10° ENE
Coronas F rocket 3.6 21:20:48 10° SW 21:23:08 28° WNW 21:25:30 10° NNW
COSMOS 2487 3.1 21:19:46 10° N 21:23:14 42° ENE 21:26:19 12° SE
Envisat 3.0 21:27:18 10° SSE 21:32:23 85° ENE 21:37:30 10° NNW
MetOp-B 4.4 21:27:42 10° SE 21:32:50 53° ENE 21:38:03 10° N
Cosmos 1975 Rocket 3.5 21:29:50 10° N 21:34:00 44° ENE 21:37:35 13° SSE
Cosmos 1939 Rocket 3.0 21:30:35 10° S 21:34:27 75° WSW 21:38:24 10° NNW
TIMED 4.5 21:32:59 10° SSW 21:37:20 83° ESE 21:41:45 10° NNE
DNEPR-1 R/B 4.2 21:33:43 10° NNW 21:39:13 56° NE 21:42:52 16° SE
Cosmos 1420 Rocket 4.3 21:38:24 10° S 21:43:21 44° ESE 21:48:18 10° NNE
Cosmos 2084 3.0 21:39:50 10° SSW 21:43:40 73° SE 21:47:30 10° NE
Cosmos 1908 Rocket 3.6 21:40:37 10° S 21:45:01 83° W 21:49:29 10° N
Cosmos 1378 Rocket 3.5 21:41:34 10° N 21:45:54 86° W 21:50:13 10° S
Cosmos 2341 Rocket 4.0 21:40:44 10° S 21:46:59 72° E 21:53:15 10° NNE
Cosmos 407 Rocket 4.4 21:44:33 10° NNW 21:49:35 47° WSW 21:54:39 10° S
ERS-1 Rocket 4.0 21:44:52 10° S 21:49:40 45° W 21:54:32 10° NNW
ARGOS 3.6 21:46:44 16° SE 21:50:44 47° ENE 21:55:51 10° N
ATLAS 5 CENTAUR R/B 4.1 21:45:55 10° WNW 21:50:55 27° WSW 21:56:09 10° SSW
deb Chang Zheng 4 3.8 21:46:33 10° N 21:50:58 76° WNW 21:55:23 10° SSW
Cosmos 1140 Rocket 3.4 21:50:08 10° NNW 21:55:19 77° ENE 21:59:09 18° SSE
YAOGAN 6 2.5 21:53:07 20° SSE 21:55:27 68° ENE 21:58:57 10° N
Cosmos 1242 Rocket 2.6 21:53:06 10° N 21:56:45 62° E 21:58:57 22° SSE
H-2A R/B 3.3 21:53:53 16° ESE 21:57:07 29° ENE 22:01:37 10° N
Cosmos 1408 2.7 21:53:48 10° SSW 21:57:28 77° W 22:01:08 10° N
CZ-4 SHROUD 3.1 21:55:59 21° SSE 21:57:53 85° E 22:01:00 10° NNW
Timation 2 Rocket 3.9 21:54:00 10° NNW 22:00:02 76° ENE 22:04:21 20° SSE
SL-8 Rocket 4.2 21:54:45 11° SSE 22:00:36 55° E 22:06:40 10° NNE
USA 245 3.3 21:59:04 25° SE 22:00:54 58° ENE 22:04:59 10° N
Cosmos 962 Rocket 4.5 21:55:07 10° S 22:01:17 90° NNE 22:07:34 10° N
Cosmos 1452 Rocket 3.9 21:56:32 10° SSW 22:01:46 69° WNW 22:07:04 10° NNE
PSLV R/B 3.1 22:00:22 22° S 22:02:07 75° WSW 22:05:04 10° NNW
Cosmos 1825 2.5 21:58:53 10° SSW 22:02:40 66° W 22:06:30 10° N
CZ-4B R/B 3.5 22:02:32 10° NNE 22:07:25 54° E 22:11:04 17° S
Cosmos 1184 Rocket 3.3 22:06:22 10° SSW 22:09:39 62° WNW 22:12:59 10° N
Cosmos 1833 Rocket 3.2 22:06:46 10° NNW 22:12:12 47° ENE 22:15:24 23° ESE
SPOT 1/Viking Rocket 3.5 22:08:42 20° SSE 22:12:22 81° ENE 22:17:37 10° NNW
Cosmos 2151 Rocket 4.1 22:10:45 25° SSE 22:12:53 42° E 22:17:10 10° NNE
USA 234 4.0 22:07:43 10° ENE 22:13:09 27° SE 22:17:45 13° S
H-2A R/B 3.5 22:10:19 10° SSW 22:14:14 34° W 22:18:06 10° NNW
Cosmos 2278 Rocket 2.4 22:09:33 10° SSW 22:15:13 74° WNW 22:20:56 10° NNE
Landsat 7 4.3 22:15:00 26° SE 22:17:19 46° ENE 22:21:53 10° N
Cosmos 1844 Rocket 4.3 22:13:00 10° WSW 22:18:12 37° NW 22:23:24 10° N
ISS -3.1 22:19:18 10° WSW 22:22:32 68° NNW 22:25:48 10° NE
IGS 5A 4.5 22:23:39 26° ESE 22:24:55 32° ENE 22:28:38 10° N
Cosmos 1812 3.7 22:22:28 10° NNE 22:25:57 31° ENE 22:26:39 29° E
Meteor 1-14 Rocket 4.1 22:23:47 15° S 22:28:31 79° E 22:34:06 10° NNE
Cosmos 864 Rocket 4.5 22:27:09 22° SSE 22:31:08 64° E 22:37:14 10° NNE
Cosmos 1850 Rocket 4.2 22:27:43 10° NNW 22:33:01 68° WSW 22:36:03 26° S
Terra 2.3 22:31:14 31° ESE 22:33:02 47° ENE 22:37:36 10° N
Cosmos 2082 Rocket 2.2 22:28:08 10° NNW 22:33:53 84° ENE 22:36:43 31° SSE
Okean 1 Rocket 4.2 22:35:21 27° E 22:35:41 27° E 22:39:27 10° NNE
SL-08 RB Rocket 3.7 22:33:34 30° S 22:35:52 82° WSW 22:40:32 10° NNW
SPOT 5 4.4 22:34:17 10° SSW 22:39:04 35° W 22:43:57 10° NNW
Cosmos 2366 rocket 3.9 22:36:36 20° S 22:41:05 81° E 22:47:27 10° N
Okean 1-7 Rocket 4.5 22:39:41 10° N 22:43:46 33° ENE 22:44:34 31° E
Spot 4 4.4 22:42:41 34° ESE 22:44:16 46° ENE 22:48:54 10° N
Okean 2 Rocket 4.4 22:40:43 10° SW 22:44:51 38° WNW 22:49:00 10° N
Cosmos 2297 3.9 22:44:46 10° SSW 22:50:28 75° WNW 22:56:14 10° NNE
Lacrosse 5 3.6 22:56:43 18° E 22:56:43 18° E 22:58:22 10° ENE
DMSP B5D2-2 4.1 22:49:26 10° NNE 22:54:38 60° ESE 22:56:17 40° SSE
CZ-4C R/B 3.4 22:55:37 51° S 22:56:31 73° WSW 23:00:39 10° NNW
AVUM R/B 3.2 22:53:15 10° NNW 22:56:48 83° ENE 22:56:53 82° E
USA 229 DEB 3.8 22:53:55 10° NW 23:01:01 76° WSW 23:04:18 35° SSE
USA 229 3.8 22:54:02 10° NW 23:01:08 76° WSW 23:04:24 35° SSE
Spot 2 4.5 22:57:58 10° NNE 23:01:57 42° E 23:01:57 42° E
ASTEX 1 3.6 22:58:36 10° NNE 23:03:29 54° E 23:04:22 47° SE
Cosmos 1331 Rocket 3.9 23:02:16 45° SSE 23:03:38 62° ESE 23:08:44 10° NNE
Gbstr 26 Del rocket 3.5 22:58:51 10° NW 23:03:51 57° NNE 23:05:19 37° E
Cosmos 1110 Rocket 3.9 23:08:24 39° S 23:10:24 82° ESE 23:15:38 10° NNE
Cosmos 1400 Rocket 4.2 23:11:14 27° ENE 23:11:14 27° ENE 23:14:01 10° NNE
Cosmos 1536 4.5 23:12:06 22° ENE 23:12:06 22° ENE 23:14:25 10° NE
CARTOSAT-1 3.7 23:12:58 51° SSW 23:13:49 64° WSW 23:18:08 10° NNW
Timation 1 Rocket 4.2 23:10:38 27° SSW 23:14:08 84° ESE 23:20:10 10° NNE
NOSS 3-1 (A) 4.4 23:12:00 10° NNW 23:19:18 55° NE 23:23:39 28° ESE
Cosmos 2369 Rocket 3.2 23:23:59 29° E 23:23:59 29° E 23:28:11 10° NE
Meteor 1-19 Rocket 4.4 23:21:01 10° N 23:26:50 61° ENE 23:28:09 49° SE
Cosmos 1633 4.1 23:33:32 28° NE 23:33:32 28° NE 23:35:44 10° NNE
Cosmos 1354 Rocket 4.4 23:28:36 10° NNW 23:33:45 52° ENE 23:34:39 46° E
Okean 1 3.9 23:29:52 10° NNW 23:33:48 47° W 23:34:04 47° WSW
Cosmos 1486 Rocket 3.9 23:29:31 10° NNW 23:34:53 85° WSW 23:35:47 63° S
H-2A R/B 3.0 23:34:32 31° SW 23:36:21 40° W 23:41:22 10° NNW
Cosmos 1892 Rocket 4.3 23:34:28 10° N 23:38:22 40° ENE 23:38:22 40° ENE
ATLAS 2AS CENTAUR R/B 4.2 23:32:43 10° NNW 23:40:10 37° NE 23:46:07 15° E
Cosmos 2084 Rocket 4.5 23:44:39 10° NNW 23:48:14 33° NE 23:48:19 33° NE
NOSS 3-1 (C) 4.0 23:42:01 10° NW 23:49:35 90° W 23:52:31 45° SE
